FW3222 Weather Reports


Display with metric or nautical units.
time (UTC)temp
F
wind
direction
speed
MPH
gust
MPH
rain 1hr
in
rain 24hr
in
rain mn
in
humidity
%
barometer
mb
20260903104841 69 161 1.0 5.0 0.13 0.55 0.23 77 1017.1
20260903104535 69 154 1.0 5.0 0.06 0.54 0.21 77 1017.7
20260903104238 69 177 1.0 5.0 0.06 0.53 0.21 77 1018.3
20260903103927 69 222 0.0 3.0 0.00 0.53 0.21 77 1018.4
20260903103629 69 271 0.0 3.0 0.00 0.53 0.21 77 1018.3
20260903103329 69 236 1.0 2.0 0.00 0.52 0.20 77 1018.3
20260903103022 69 252 0.0 2.0 0.00 0.52 0.20 77 1018.2
20260903102719 69 247 0.0 2.0 0.00 0.52 0.20 77 1017.7
20260903102420 69 57 0.0 2.0 0.00 0.52 0.20 77 1017.5
20260903102117 69 311 0.0 1.0 0.00 0.52 0.20 77 1017.9
20260903101816 69 311 0.0 1.0 0.00 0.52 0.20 77 1018.1
20260903101518 69 178 0.0 3.0 0.00 0.52 0.20 77 1018.2
20260903100756 69 208 0.0 1.0 0.00 0.52 0.20 77 1018.2
20260903100448 69 211 0.0 3.0 0.00 0.51 0.19 77 1018.2
20260903100146 69 183 0.0 3.0 0.04 0.51 0.19 77 1018.3
20260903095848 69 183 0.0 1.0 0.05 0.51 0.19 77 1018.4
20260903095549 70 148 0.0 0.0 0.06 0.51 0.19 77 1018.7
20260903095246 70 126 0.0 0.0 0.10 0.51 0.19 77 1018.9
20260903094949 70 167 0.0 0.0 0.15 0.51 0.19 77 1019.3
20260903094641 70 167 0.0 3.0 0.15 0.50 0.18 77 1019.6
20260903094341 70 279 0.0 3.0 0.08 0.49 0.18 77 1019.7
20260903094036 70 286 0.0 3.0 0.10 0.49 0.17 77 1019.6
20260903093731 70 306 0.0 3.0 0.15 0.49 0.17 77 1019.3
20260903093435 70 70 0.0 3.0 0.00 0.48 0.16 77 1018.8
20260903093138 70 117 0.0 2.0 0.00 0.47 0.16 77 1018.8
20260903092827 70 320 0.0 0.0 0.00 0.47 0.15 77 1019.0
20260903092518 70 320 0.0 0.0 0.00 0.47 0.15 77 1018.9
20260903092220 70 320 0.0 0.0 0.00 0.47 0.15 77 1018.9
20260903091919 70 320 0.0 0.0 0.04 0.47 0.15 77 1018.8
20260903091619 70 320 0.0 0.0 0.05 0.47 0.15 77 1018.7
20260903091307 70 320 0.0 0.0 0.06 0.47 0.15 77 1018.6
20260903090959 70 320 0.0 5.0 0.12 0.47 0.15 77 1018.4
20260903090700 70 319 0.0 5.0 0.21 0.47 0.15 77 1018.4
20260903090353 70 140 1.0 5.0 0.34 0.46 0.13 77 1018.4
20260903090052 70 127 1.0 5.0 1.54 0.41 0.10 77 1018.5
20260903085753 70 159 1.0 5.0 0.69 0.36 0.05 77 1019.1
20260903085444 70 229 1.0 5.0 0.00 0.35 0.03 77 1019.1
20260903085134 70 259 1.0 4.0 0.00 0.35 0.03 77 1018.9
20260903084831 70 101 1.0 4.0 0.00 0.35 0.03 77 1018.5
20260903084520 70 61 1.0 3.0 0.00 0.35 0.03 77 1018.3
20260903084215 70 47 1.0 3.0 0.00 0.35 0.03 77 1018.3
20260903083904 70 104 0.0 2.0 0.00 0.35 0.03 77 1018.5
20260903083605 70 20 0.0 2.0 0.00 0.35 0.03 77 1018.7
20260903082832 70 140 0.0 0.0 0.00 0.34 0.02 77 1018.1
20260903082523 70 139 0.0 0.0 0.00 0.34 0.02 77 1018.1
20260903082222 70 139 0.0 0.0 0.00 0.34 0.02 77 1018.2
20260903081911 70 140 0.0 0.0 0.00 0.34 0.02 77 1018.2
20260903081604 71 135 0.0 0.0 0.00 0.34 0.02 76 1018.2
20260903081256 71 62 0.0 2.0 0.00 0.34 0.02 77 1018.4
20260903080951 71 75 0.0 2.0 0.00 0.34 0.02 76 1018.3
20260903080649 71 90 0.0 2.0 0.00 0.34 0.02 76 1018.2
20260903080353 71 121 0.0 2.0 0.00 0.34 0.02 76 1018.1
20260903075629 71 5 0.0 4.0 0.05 0.34 0.02 76 1018.2
20260903074421 71 113 0.0 1.0 0.00 0.33 0.01 76 1017.9
20260903074122 71 148 0.0 4.0 0.00 0.33 0.01 76 1017.8
20260903073822 71 74 0.0 4.0 0.00 0.32 0.00 76 1017.9
20260903073509 71 131 0.0 3.0 0.00 0.32 0.00 76 1018.0
20260903073200 71 113 1.0 3.0 0.00 0.32 0.00 76 1018.2
20260903072443 71 101 1.0 7.0 0.00 0.32 0.00 76 1018.4
20260903072130 71 114 1.0 8.0 0.00 0.32 0.00 76 1018.4
20260903071819 71 44 1.0 8.0 0.00 0.32 0.00 76 1018.4
20260903071508 71 47 1.0 8.0 0.00 0.32 0.00 76 1018.1
20260903071208 71 355 1.0 8.0 0.00 0.32 0.00 76 1017.8
20260903070909 71 88 2.0 8.0 0.00 0.32 0.00 76 1017.6
20260903070600 71 82 2.0 8.0 0.00 0.32 0.00 76 1017.6
20260903070255 71 285 2.0 8.0 0.00 0.32 0.00 76 1017.7
20260903065944 71 345 1.0 7.0 0.00 0.32 0.00 76 1017.7
20260903065647 71 76 0.0 4.0 0.00 0.32 0.00 77 1017.6
20260903065352 71 0 0.0 4.0 0.00 0.32 0.00 77 1017.4
20260903065051 71 271 0.0 0.0 0.00 0.32 0.00 76 1017.3
20260903064741 71 271 0.0 0.0 0.00 0.32 0.00 76 1017.2
20260903064440 71 271 0.0 0.0 0.00 0.32 0.00 76 1017.1
20260903064140 71 271 0.0 0.0 0.00 0.32 0.00 76 1017.1
20260903063835 71 271 0.0 0.0 0.00 0.32 0.00 76 1017.1
20260903063524 71 271 0.0 0.0 0.00 0.32 0.00 76 1017.3
20260903063221 71 271 0.0 0.0 0.00 0.32 0.00 76 1017.3
20260903062456 71 271 0.0 1.0 0.00 0.32 0.00 76 1017.1
20260903062146 71 271 0.0 1.0 0.00 0.32 0.00 76 1016.9
20260903061848 71 205 0.0 1.0 0.00 0.32 0.00 76 1016.7
20260903061119 72 211 0.0 1.0 0.00 0.32 0.00 76 1016.9
20260903060818 72 118 0.0 0.0 0.00 0.32 0.00 76 1017.0
20260903060058 72 118 0.0 0.0 0.00 0.32 0.00 76 1016.8
20260903055750 72 118 0.0 0.0 0.00 0.32 0.00 76 1016.9
20260903055438 72 118 0.0 0.0 0.00 0.32 0.00 76 1017.1
20260903055139 72 90 0.0 0.0 0.00 0.32 0.00 76 1017.2
20260903054830 72 164 0.0 1.0 0.00 0.32 0.00 77 1017.4
20260903054532 72 82 0.0 0.0 0.00 0.32 0.00 76 1017.3
20260903054234 72 82 0.0 0.0 0.00 0.32 0.00 76 1017.4
20260903053510 72 82 0.0 0.0 0.00 0.32 0.00 76 1017.4
20260903053203 72 82 0.0 4.0 0.00 0.32 0.00 76 1017.3
20260903052855 72 92 0.0 4.0 0.00 0.32 0.00 76 1017.3
20260903052555 72 90 0.0 4.0 0.00 0.32 0.00 76 1017.3
20260903052248 72 94 0.0 4.0 0.00 0.32 0.00 76 1017.4
20260903051949 72 96 0.0 3.0 0.00 0.32 0.00 76 1017.5
20260903051649 72 67 0.0 0.0 0.00 0.32 0.00 77 1017.5
20260903051339 72 76 0.0 0.0 0.00 0.32 0.00 77 1017.3
20260903050149 72 104 1.0 8.0 0.00 0.32 0.00 77 1017.6
20260903045845 72 89 1.0 8.0 0.00 0.32 0.00 77 1017.8
20260903045541 72 75 2.0 12.0 0.00 0.32 0.00 77 1017.8
20260903045238 72 90 2.0 12.0 0.00 0.32 0.00 77 1018.0
20260903044926 72 94 3.0 12.0 0.00 0.32 0.00 77 1018.0
20260903044624 72 67 3.0 12.0 0.00 0.32 0.00 77 1018.0
20260903043854 72 94 4.0 12.0 0.00 0.32 0.00 77 1018.0
20260903043553 72 109 2.0 11.0 0.00 0.32 0.00 77 1018.1
20260903043243 72 76 1.0 7.0 0.00 0.32 0.00 77 1018.4
20260903042942 72 87 1.0 3.0 0.00 0.32 0.00 77 1018.5
20260903042227 72 27 0.0 2.0 0.00 0.32 0.00 77 1017.8
20260903041925 72 59 0.0 2.0 0.00 0.32 0.00 77 1017.7
20260903041612 72 89 0.0 0.0 0.00 0.32 0.00 77 1017.7
20260903041304 72 92 0.0 1.0 0.00 0.32 0.00 77 1017.5
20260903040551 72 163 0.0 0.0 0.00 0.32 0.00 77 1017.5
20260903040237 72 163 0.0 0.0 0.00 0.32 0.00 77 1017.4
20260903035936 72 175 0.0 0.0 0.00 0.32 0.32 77 1017.4
20260903035630 72 192 0.0 0.0 0.00 0.32 0.32 77 1017.6
20260903035327 72 192 0.0 0.0 0.00 0.32 0.32 77 1017.6
20260903035018 72 193 0.0 1.0 0.00 0.32 0.32 77 1017.6
20260903034708 72 138 0.0 0.0 0.00 0.32 0.32 77 1017.6
20260903034410 72 123 0.0 0.0 0.00 0.32 0.32 77 1017.6
20260903034112 72 76 0.0 0.0 0.00 0.32 0.32 77 1017.7
20260903033800 72 76 0.0 2.0 0.00 0.32 0.32 77 1017.7
20260903033453 72 59 0.0 1.0 0.00 0.32 0.32 77 1017.6
20260903033147 72 101 0.0 1.0 0.00 0.32 0.32 77 1017.5
20260903032851 72 205 0.0 1.0 0.00 0.32 0.32 77 1017.5
20260903032554 72 57 0.0 1.0 0.00 0.32 0.32 77 1017.4
20260903032255 72 236 0.0 0.0 0.00 0.34 0.32 77 1017.4
20260903031955 72 188 0.0 2.0 0.00 0.41 0.32 77 1017.4
20260903031232 72 51 0.0 0.0 0.00 0.52 0.32 77 1017.8
20260903030926 72 42 0.0 0.0 0.00 0.52 0.32 77 1017.8
20260903030615 72 42 0.0 0.0 0.00 0.52 0.32 77 1017.7
20260903025901 72 188 0.0 0.0 0.00 0.52 0.32 76 1017.9
20260903024702 72 150 0.0 0.0 0.00 0.52 0.32 76 1017.7
20260903024357 72 150 0.0 0.0 0.00 0.52 0.32 76 1017.8
20260903024044 72 124 0.0 0.0 0.00 0.52 0.32 76 1017.9
20260903023748 72 124 0.0 0.0 0.00 0.52 0.32 76 1017.9
20260903023445 72 71 0.0 0.0 0.00 0.52 0.32 76 1017.9
20260903023146 72 76 0.0 0.0 0.00 0.52 0.32 76 1017.7
20260903022431 72 96 0.0 0.0 0.00 0.52 0.32 76 1017.1
20260903022122 73 138 0.0 0.0 0.00 0.52 0.32 76 1017.1
20260903021826 73 174 0.0 2.0 0.00 0.52 0.32 76 1017.0
20260903021521 73 111 0.0 0.0 0.00 0.52 0.32 76 1016.9
20260903021210 73 190 0.0 0.0 0.00 0.52 0.32 76 1017.1
20260903020901 73 148 0.0 0.0 0.00 0.52 0.32 76 1017.2
20260903020547 73 71 0.0 0.0 0.00 0.52 0.32 76 1017.1
20260903020251 73 74 0.0 1.0 0.00 0.52 0.32 76 1017.1
20260903015527 73 319 0.0 0.0 0.00 0.52 0.32 76 1017.0
20260903015224 73 319 0.0 0.0 0.00 0.52 0.32 76 1017.1
20260903014915 73 319 0.0 0.0 0.00 0.52 0.32 76 1017.2
20260903014614 73 58 0.0 0.0 0.00 0.52 0.32 76 1017.2
20260903014308 73 58 0.0 1.0 0.00 0.52 0.32 76 1017.2
20260903014005 73 69 0.0 1.0 0.00 0.52 0.32 76 1017.3
20260903013706 73 190 0.0 0.0 0.00 0.52 0.32 76 1017.3
20260903013354 74 196 0.0 0.0 0.00 0.52 0.32 76 1017.4
20260903013050 74 196 0.0 0.0 0.00 0.52 0.32 76 1017.5
20260903012746 74 191 0.0 0.0 0.00 0.52 0.32 76 1017.5
20260903012451 74 191 0.0 3.0 0.00 0.52 0.32 76 1017.4
20260903012143 74 131 0.0 3.0 0.00 0.52 0.32 76 1017.5
20260903011830 74 86 0.0 3.0 0.00 0.52 0.32 76 1017.4
20260903011523 74 106 0.0 1.0 0.00 0.52 0.32 76 1017.3
20260903010335 74 88 1.0 3.0 0.00 0.52 0.32 76 1017.0
20260903005615 74 90 1.0 3.0 0.00 0.52 0.32 76 1017.1
20260903005313 74 86 0.0 2.0 0.00 0.52 0.32 76 1017.2
20260903005017 74 68 0.0 1.0 0.00 0.52 0.32 76 1017.1
20260903004704 74 83 0.0 0.0 0.00 0.52 0.32 76 1017.0
20260903004358 74 88 0.0 0.0 0.00 0.52 0.32 76 1017.1
20260903004052 74 71 0.0 3.0 0.00 0.52 0.32 76 1017.0
20260903003742 74 65 0.0 1.0 0.00 0.52 0.32 76 1017.1
20260903003442 74 80 0.0 0.0 0.00 0.52 0.32 76 1017.0
20260903003140 75 80 0.0 0.0 0.00 0.52 0.32 76 1017.2
20260903002843 75 80 0.0 0.0 0.00 0.52 0.32 76 1017.2
20260903002120 75 80 0.0 0.0 0.00 0.52 0.32 76 1017.1
20260903001807 75 115 0.0 0.0 0.00 0.52 0.32 76 1017.0
20260903001454 75 115 0.0 1.0 0.00 0.52 0.32 76 1017.1
20260903001142 75 77 0.0 1.0 0.00 0.52 0.32 75 1017.1
20260903000420 75 91 0.0 0.0 0.00 0.52 0.32 75 1017.1
20260902235650 75 111 0.0 0.0 0.00 0.52 0.32 75 1017.2
20260902235343 75 111 0.0 0.0 0.00 0.52 0.32 75 1017.2
20260902235038 75 111 0.0 0.0 0.00 0.52 0.32 75 1017.2
20260902234731 75 111 0.0 0.0 0.00 0.52 0.32 75 1017.2
20260902234423 75 111 0.0 0.0 0.00 0.52 0.32 75 1017.2
20260902234111 76 111 0.0 0.0 0.00 0.52 0.32 75 1017.3
20260902233812 76 111 0.0 0.0 0.00 0.52 0.32 75 1017.3
20260902233501 76 111 0.0 0.0 0.00 0.52 0.32 75 1017.2
20260902232747 76 111 0.0 0.0 0.00 0.52 0.32 75 1017.3
20260902232437 76 111 0.0 0.0 0.00 0.52 0.32 75 1017.2
20260902232125 76 111 0.0 0.0 0.00 0.52 0.32 75 1017.1
20260902231821 76 111 0.0 0.0 0.00 0.52 0.32 75 1017.1
20260902231519 76 98 0.0 0.0 0.00 0.52 0.32 75 1017.2
20260902231206 76 70 0.0 3.0 0.00 0.52 0.32 75 1017.0
20260902230431 76 96 0.0 0.0 0.00 0.52 0.32 75 1017.1
20260902230123 76 96 0.0 1.0 0.00 0.52 0.32 75 1017.2
20260902225815 76 88 0.0 1.0 0.00 0.52 0.32 75 1017.2
20260902225509 76 89 0.0 0.0 0.00 0.52 0.32 75 1017.1
20260902225204 76 94 0.0 0.0 0.00 0.52 0.32 75 1017.1
20260902224903 76 90 0.0 0.0 0.00 0.52 0.32 75 1017.0
20260902224136 77 84 0.0 2.0 0.00 0.52 0.32 74 1016.9
20260902223826 77 84 0.0 2.0 0.00 0.52 0.32 74 1016.8
20260902223520 77 88 0.0 2.0 0.00 0.52 0.32 74 1017.0
20260902223207 77 81 0.0 0.0 0.00 0.52 0.32 74 1017.2
20260902222859 77 81 0.0 3.0 0.00 0.52 0.32 74 1017.1
20260902222557 77 69 0.0 3.0 0.00 0.52 0.32 74 1017.1
20260902222245 77 83 0.0 0.0 0.00 0.52 0.32 74 1017.2
20260902221937 77 83 0.0 1.0 0.00 0.52 0.32 74 1017.0
20260902221210 77 87 0.0 1.0 0.00 0.52 0.32 74 1017.0
20260902220906 77 96 0.0 0.0 0.00 0.52 0.32 74 1016.8
20260902220610 78 84 0.0 1.0 0.00 0.52 0.32 74 1016.9
20260902220312 78 317 0.0 0.0 0.00 0.52 0.32 74 1017.0
20260902220013 78 90 0.0 0.0 0.00 0.52 0.32 74 1017.2
20260902215717 78 89 0.0 0.0 0.00 0.52 0.32 74 1017.0
20260902214951 78 45 1.0 2.0 0.00 0.52 0.32 73 1017.2
20260902214652 78 68 1.0 3.0 0.00 0.52 0.32 73 1017.3
20260902214348 78 71 1.0 3.0 0.00 0.52 0.32 73 1017.2
20260902214047 78 69 1.0 3.0 0.00 0.52 0.32 73 1017.2
20260902213307 78 93 0.0 3.0 0.00 0.52 0.32 74 1017.4
20260902213003 78 45 0.0 1.0 0.00 0.52 0.32 74 1017.3
20260902212651 78 76 0.0 1.0 0.00 0.52 0.32 74 1017.4
20260902211936 78 284 0.0 2.0 0.00 0.52 0.32 74 1017.5
20260902211639 78 289 0.0 3.0 0.00 0.52 0.32 74 1017.4
20260902211325 77 296 0.0 3.0 0.00 0.52 0.32 74 1017.4
20260902211025 77 63 0.0 3.0 0.00 0.52 0.32 74 1017.4
20260902210715 77 86 1.0 3.0 0.00 0.52 0.32 74 1017.4
20260902210410 77 355 0.0 3.0 0.00 0.52 0.32 74 1017.5
20260902210103 77 9 0.0 3.0 0.00 0.52 0.32 74 1017.5
20260902205759 77 81 0.0 1.0 0.00 0.52 0.32 74 1017.5
20260902205500 77 111 0.0 1.0 0.00 0.52 0.32 75 1017.7
20260902205201 77 54 0.0 0.0 0.00 0.52 0.32 74 1017.8
20260902204439 77 180 0.0 2.0 0.00 0.52 0.32 74 1017.9
20260902204128 77 86 0.0 2.0 0.00 0.52 0.32 75 1018.0
20260902203817 77 238 0.0 1.0 0.00 0.52 0.32 75 1018.0
20260902203509 77 254 0.0 0.0 0.00 0.52 0.32 74 1018.0
20260902203211 77 310 1.0 4.0 0.00 0.52 0.32 75 1018.0
20260902202449 77 180 1.0 4.0 0.00 0.52 0.32 75 1017.9
20260902202140 77 30 1.0 4.0 0.00 0.52 0.32 74 1017.8
20260902201837 77 198 1.0 4.0 0.00 0.52 0.32 75 1017.8
20260902201529 77 137 1.0 4.0 0.00 0.52 0.32 74 1017.7
20260902201215 77 125 1.0 4.0 0.00 0.52 0.32 75 1017.7
20260902200904 77 60 1.0 3.0 0.00 0.52 0.32 75 1017.7
20260902200557 77 225 1.0 3.0 0.00 0.52 0.32 76 1017.7
20260902200255 76 242 0.0 3.0 0.00 0.52 0.32 76 1017.8
20260902195523 76 77 0.0 2.0 0.00 0.52 0.32 75 1017.9
20260902195210 76 98 0.0 4.0 0.00 0.52 0.32 75 1017.9
20260902194907 76 98 0.0 2.0 0.00 0.52 0.32 76 1018.0
20260902194137 76 56 0.0 5.0 0.00 0.52 0.32 76 1018.1
20260902193827 75 121 0.0 5.0 0.00 0.52 0.32 76 1018.2
20260902193518 75 173 0.0 5.0 0.00 0.52 0.32 76 1018.2
20260902192754 75 42 1.0 5.0 0.00 0.52 0.32 76 1018.3
20260902192456 75 176 1.0 5.0 0.00 0.52 0.32 77 1018.4
20260902192143 75 236 1.0 3.0 0.00 0.52 0.32 77 1018.5
20260902191843 75 326 1.0 3.0 0.00 0.52 0.32 77 1018.4
20260902191539 75 252 0.0 3.0 0.00 0.52 0.32 78 1018.6
20260902191238 75 334 0.0 2.0 0.00 0.52 0.32 78 1018.5
20260902190926 74 177 0.0 2.0 0.00 0.52 0.32 78 1018.5
20260902190623 74 248 0.0 2.0 0.00 0.52 0.32 78 1018.5
20260902190319 74 244 0.0 1.0 0.00 0.52 0.32 77 1018.5
20260902190016 74 284 0.0 3.0 0.00 0.52 0.32 78 1018.4
20260902185301 74 298 0.0 5.0 0.00 0.52 0.32 78 1018.3
20260902184955 74 23 1.0 5.0 0.00 0.52 0.32 78 1018.3
20260902184235 73 261 0.0 5.0 0.00 0.52 0.32 79 1018.2
20260902183936 73 296 0.0 5.0 0.00 0.52 0.32 79 1018.1
20260902183631 73 246 1.0 5.0 0.00 0.52 0.32 79 1018.1
20260902183331 73 0 0.0 5.0 0.00 0.52 0.32 78 1018.1
20260902183030 72 242 0.0 3.0 0.00 0.52 0.32 78 1018.2
20260902182311 72 283 0.0 0.0 0.00 0.52 0.32 79 1018.2
20260902182009 72 279 0.0 0.0 0.00 0.52 0.32 78 1018.3
20260902181239 72 275 0.0 0.0 0.00 0.52 0.32 78 1018.5
20260902180518 71 292 0.0 0.0 0.00 0.50 0.31 78 1018.7
20260902180218 71 292 0.0 0.0 0.00 0.50 0.31 78 1018.7
20260902175915 71 229 0.0 0.0 0.00 0.50 0.31 78 1018.7
20260902175616 71 100 0.0 0.0 0.00 0.50 0.31 78 1018.7
20260902175319 71 91 0.0 0.0 0.00 0.50 0.31 78 1018.7
20260902175016 70 96 0.0 0.0 0.00 0.50 0.31 78 1018.8
20260902174719 70 97 0.0 0.0 0.00 0.50 0.31 78 1018.9
20260902174406 70 69 0.0 0.0 0.04 0.50 0.31 78 1019.0
20260902174106 70 73 0.0 0.0 0.04 0.50 0.31 78 1019.1
20260902173752 70 88 0.0 0.0 0.05 0.50 0.31 78 1019.2
20260902173040 70 317 0.0 0.0 0.05 0.50 0.31 78 1019.2
20260902172741 70 303 0.0 0.0 0.05 0.49 0.31 78 1019.1
20260902172010 70 172 0.0 0.0 0.05 0.49 0.30 78 1018.8
20260902171704 70 99 0.0 0.0 0.05 0.49 0.30 78 1019.3
20260902171355 70 96 0.0 0.0 0.05 0.49 0.28 78 1019.1
20260902171054 70 96 0.0 0.0 0.06 0.49 0.28 78 1019.3
20260902170753 70 61 0.0 0.0 0.06 0.49 0.28 78 1019.5
20260902170449 70 62 0.0 0.0 0.06 0.49 0.28 78 1019.6
20260902170146 70 61 0.0 0.0 0.06 0.47 0.28 78 1019.6
20260902165841 70 53 0.0 0.0 0.06 0.47 0.27 78 1019.8
20260902165122 70 130 0.0 0.0 0.06 0.46 0.27 78 1019.9
20260902164822 70 130 0.0 0.0 0.09 0.46 0.27 78 1019.8
20260902164518 70 143 0.0 0.0 0.10 0.46 0.27 78 1019.8
20260902163345 70 167 0.0 0.0 0.10 0.44 0.25 78 1020.1
20260902163040 70 198 0.0 0.0 0.10 0.44 0.25 77 1020.3
20260902161900 70 111 0.0 0.0 0.00 0.42 0.23 77 1020.7
20260902161132 70 150 0.0 0.0 0.00 0.41 0.21 77 1021.0
20260902160834 70 159 0.0 0.0 0.00 0.41 0.21 77 1021.0
20260902160527 70 132 0.0 0.0 0.00 0.41 0.21 77 1021.2
20260902160214 70 125 0.0 0.0 0.04 0.41 0.21 77 1020.9
20260902155900 71 136 0.0 0.0 0.05 0.41 0.21 77 1020.8
20260902155558 71 195 0.0 0.0 0.06 0.41 0.21 76 1020.8
20260902155250 71 178 0.0 0.0 0.08 0.41 0.21 77 1020.9
20260902154515 71 125 0.0 0.0 0.10 0.41 0.21 76 1020.6
20260902154215 72 187 0.0 0.0 0.24 0.41 0.21 76 1020.7
20260902153902 72 123 2.0 0.0 0.37 0.39 0.20 76 1020.6
20260902153559 72 170 3.0 17.0 0.45 0.36 0.18 76 1020.7
20260902153249 73 192 4.0 17.0 1.48 0.30 0.13 76 1021.1
20260902152950 74 65 3.0 17.0 1.74 0.22 0.06 76 1022.1
20260902152652 74 239 1.0 10.0 0.17 0.22 0.03 76 1020.4
20260902152355 75 0 1.0 5.0 0.77 0.20 0.03 76 1020.0
20260902152051 75 49 0.0 4.0 0.00 0.19 0.00 76 1019.8
20260902151328 75 54 0.0 4.0 0.00 0.19 0.00 76 1019.3
20260902150609 75 63 1.0 4.0 0.00 0.19 0.00 76 1019.1
20260902150304 75 71 0.0 4.0 0.00 0.19 0.00 76 1019.0
20260902145957 75 238 1.0 8.0 0.00 0.19 0.00 77 1018.8
20260902145647 75 0 1.0 8.0 0.00 0.19 0.00 77 1018.7
20260902145335 75 57 1.0 8.0 0.00 0.19 0.00 77 1018.6
20260902145024 74 109 2.0 9.0 0.00 0.19 0.00 77 1018.6
20260902144711 74 82 2.0 9.0 0.00 0.19 0.00 77 1018.7
20260902144409 74 32 2.0 9.0 0.00 0.19 0.00 77 1018.8
20260902144108 74 60 3.0 9.0 0.00 0.19 0.00 77 1018.8
20260902143755 74 76 3.0 9.0 0.00 0.19 0.00 77 1018.7
20260902143446 74 61 2.0 9.0 0.00 0.19 0.00 77 1018.7
20260902143148 74 57 2.0 9.0 0.00 0.19 0.00 77 1018.8
20260902142847 74 65 2.0 9.0 0.00 0.19 0.00 77 1018.7
20260902142537 74 113 2.0 9.0 0.00 0.19 0.00 77 1018.8
20260902142231 74 89 2.0 9.0 0.00 0.19 0.00 77 1018.8
20260902141924 74 67 2.0 9.0 0.00 0.19 0.00 77 1018.8
20260902141209 74 88 2.0 7.0 0.00 0.19 0.00 77 1018.9
20260902140858 73 102 2.0 8.0 0.00 0.19 0.00 77 1018.8
20260902140140 73 18 3.0 8.0 0.00 0.19 0.00 77 1019.0
20260902135843 73 71 3.0 9.0 0.00 0.19 0.00 78 1018.9
20260902135543 73 17 3.0 9.0 0.00 0.19 0.00 77 1018.8
20260902135232 73 66 3.0 9.0 0.00 0.19 0.00 78 1018.9
20260902134924 73 67 3.0 9.0 0.00 0.19 0.00 78 1018.9
20260902134154 73 150 3.0 9.0 0.00 0.19 0.00 78 1018.6
20260902133430 73 98 0.0 5.0 0.00 0.19 0.00 78 1018.8
20260902133131 73 108 0.0 5.0 0.00 0.19 0.00 78 1018.7
20260902132826 73 200 0.0 5.0 0.00 0.19 0.00 78 1018.8
20260902132523 72 86 0.0 5.0 0.00 0.19 0.00 78 1018.9
20260902132213 72 95 0.0 5.0 0.00 0.19 0.00 78 1018.9
20260902131906 72 80 0.0 4.0 0.00 0.19 0.00 79 1018.9
20260902131606 72 131 1.0 6.0 0.00 0.19 0.00 79 1019.0
20260902131300 72 65 1.0 6.0 0.00 0.19 0.00 78 1019.1
20260902130116 71 63 1.0 6.0 0.00 0.19 0.00 78 1018.9
20260902125815 71 98 2.0 6.0 0.00 0.19 0.00 78 1018.9
20260902125044 72 55 1.0 5.0 0.00 0.19 0.00 78 1018.7
20260902124739 72 68 1.0 4.0 0.00 0.19 0.00 78 1018.6
20260902124432 71 87 1.0 4.0 0.00 0.19 0.00 78 1018.6
20260902124125 71 86 1.0 4.0 0.00 0.19 0.00 78 1018.5
20260902123813 71 64 1.0 4.0 0.00 0.19 0.00 78 1018.6
20260902123052 71 101 0.0 3.0 0.00 0.19 0.00 78 1018.4
20260902122747 71 51 0.0 3.0 0.00 0.19 0.00 78 1018.4
20260902122449 71 101 0.0 3.0 0.00 0.19 0.00 78 1018.4
20260902122144 71 40 0.0 3.0 0.00 0.19 0.00 78 1018.4
20260902121841 71 73 0.0 3.0 0.00 0.19 0.00 78 1018.2
20260902121530 71 54 0.0 3.0 0.00 0.19 0.00 78 1018.2
20260902121217 71 104 0.0 3.0 0.00 0.19 0.00 78 1018.2
20260902120910 71 67 0.0 0.0 0.00 0.19 0.00 78 1018.3
20260902120613 71 100 0.0 1.0 0.00 0.19 0.00 79 1018.3
20260902120306 71 126 0.0 1.0 0.00 0.19 0.00 78 1018.3
20260902120008 71 40 1.0 2.0 0.00 0.19 0.00 78 1018.4
20260902115236 71 67 0.0 2.0 0.00 0.19 0.00 79 1018.2
20260902114934 71 96 0.0 2.0 0.00 0.19 0.00 79 1018.2
20260902114154 70 80 1.0 3.0 0.00 0.19 0.00 78 1018.2
20260902113855 70 69 1.0 3.0 0.00 0.19 0.00 78 1018.1
20260902113559 70 82 0.0 3.0 0.00 0.19 0.00 78 1018.0
20260902113249 70 103 0.0 3.0 0.00 0.19 0.00 78 1018.0
20260902112950 69 67 0.0 0.0 0.00 0.19 0.00 78 1018.0
20260902112645 69 78 0.0 2.0 0.00 0.19 0.00 78 1018.0
20260902112337 69 97 0.0 2.0 0.00 0.19 0.00 78 1018.1
20260902112040 69 101 0.0 2.0 0.00 0.19 0.00 78 1018.1
20260902111731 69 69 0.0 0.0 0.00 0.19 0.00 78 1018.2
20260902111420 69 60 0.0 0.0 0.00 0.19 0.00 77 1018.2
20260902111109 69 60 0.0 0.0 0.00 0.19 0.00 77 1018.1
20260902110345 69 65 0.0 0.0 0.00 0.19 0.00 77 1018.0
20260902105623 69 78 0.0 1.0 0.00 0.19 0.00 77 1018.0